Regional Weather Roundup
Issued by NWS

Home | Current Version | Previous Version | Graphics & Text | Print | Product List | Glossary On
Versions: 1 2 3 4 5 6 7 8 9 10 11 12 13 14 15 16 17 18 19 20 21 22 23 24 25 26 27 28 29 30 31 32 33 34 35 36 37 38 39 40 41 42 43 44 45 46 47 48 49 50
000
ASUS43 KIND 200909
RWRIN

WEATHER ROUNDUP FOR INDIANA
NATIONAL WEATHER SERVICE INDIANAPOLIS IN
500 AM EDT WED SEP 20 2017

NOTE: "FAIR" INDICATES FEW OR NO CLOUDS BELOW 12,000 FEET WITH NO
SIGNIFICANT WEATHER AND/OR OBSTRUCTIONS TO VISIBILITY.

* - STATION DOES NOT REPORT WEATHER SUCH AS PRECIPITATION OR FOG.

+ - STATION NOT QUALITY CONTROLLED BY THE NATIONAL WEATHER SERVICE.
    USE DATA WITH CAUTION...ESPECIALLY DEWPOINT AND RELATIVE
    HUMIDITY OBSERVATIONS.

INZ001>003-010>013-019-020-201000-
NORTHWEST INDIANA

CITY           SKY/WX    TMP DP  RH WIND       PRES   REMARKS
GARY /AIRPORT/ CLEAR     65  65 100 SE3       29.93R FOG
KNOX *+        CLOUDY    55  55 100 CALM      29.93R VSB 1/4
LA PORTE +     FOG       61  61  99 CALM      29.94S VSB<1/4
MICHIGAN CITY+ FOG       59  59 100 CALM      29.94R VSB 1/4
MONTICELLO +   CLEAR     64  62  96 CALM      29.92S
RENSSELAER +   CLEAR     57  54  88 CALM      29.93R FOG
VALPARAISO     FOG       60  60 100 NE3       29.94R VSB 1/4

$$

LMZ046-743>745-201000-
SOUTHERN LAKE MICHIGAN

STATION/POSITION TIME  TEMP    WIND        PRES    WAVE
                       AIR SEA DIR/SP/G            HT
                 (UTC) (F)     (DEG/KT/KT) (MB)    (FT)
BURNS HARBOR     0840   66     180/  5/  7 1013.5R
MICHIGAN CITY    0840   64     130/  4/  5   N/A
5NW MICH CITY    0900   66 69  180/  4/  6   N/A     0

$$

INZ004-005-014>016-021>024-201000-
NORTH CENTRAL INDIANA

CITY           SKY/WX    TMP DP  RH WIND       PRES   REMARKS
GOSHEN         FOG       65  63  93 S3        29.95R VSB 1/2
LOGANSPORT +   CLEAR     61  59  94 SE3       29.94S FOG
PERU/GRISSOM   CLEAR     64  64 100 S5        29.93R
SOUTH BEND     FOG       63  63 100 S5        29.94R VSB 1/2
WARSAW +       FOG       61  61 100 CALM      29.94S VSB 1/2

$$

INZ006>009-017-018-025>027-201000-
NORTHEAST INDIANA

CITY           SKY/WX    TMP DP  RH WIND       PRES   REMARKS
AUBURN +       FOG       64  63  94 CALM      29.96R VSB 1/4
FORT WAYNE     FOG       63  61  93 CALM      29.95S VSB 1
HUNTINGTON +   PTCLDY    64  63  96 CALM      29.94S FOG
KENDALLVILLE + FOG       65  65 100 CALM      29.96R VSB 1/2

$$

INZ028-029-035-036-043>045-051>053-201000-
WEST CENTRAL INDIANA

CITY           SKY/WX    TMP DP  RH WIND       PRES   REMARKS
CRAWFORDSVL +  CLEAR     63  63 100 S3        29.94R FOG
GREENCASTLE +  FOG       63  63 100 CALM      29.95R VSB 1/4
LAFAYETTE      CLEAR     63  63 100 CALM      29.92R
TERRE HAUTE    PTCLDY    65  64  97 CALM      29.93R FOG

$$

INZ030>032-037>040-046>048-054>057-064-065-201000-
CENTRAL INDIANA

CITY           SKY/WX    TMP DP  RH WIND       PRES   REMARKS
CP ATTERBURY + FOG       64  63  94 CALM      29.96S VSB 1/4
FRANKFORT +    CLEAR     65  64  96 CALM      29.95S FOG
GREENWOOD *+   CLOUDY    69  68  98 CALM      29.96R VSB 1/2
INDIANAPOLIS   PTCLDY    68  66  93 SE7       29.94S
-EAGLE CREEK   CLOUDY    67  65  93 SE3       29.94R
KOKOMO +       FOG       63  63 100 CALM      29.95R VSB 1
MT COMFORT *+    N/A    N/A N/A N/A MISG        N/A
SHELBYVILLE    CLOUDY    68  65  90 S5        29.95S FOG
ZIONSVILLE +   FOG       63  63 100 CALM      29.95S VSB 1/2

$$

INZ033-034-041-042-049-050-058-059-201000-
EAST CENTRAL INDIANA

CITY           SKY/WX    TMP DP  RH WIND       PRES   REMARKS
MUNCIE         PTCLDY    68  65  90 SW6       29.95S
RICHMOND +     CLEAR     61  61 100 S3        29.98S FOG

$$

INZ060-061-067>069-081>083-085>088-201000-
SOUTHWEST INDIANA

CITY           SKY/WX    TMP DP  RH WIND       PRES   REMARKS
EVANSVILLE     CLEAR     69  67  93 CALM      29.93S FOG
HUNTINGBURG +    N/A    N/A N/A N/A MISG        N/A
WASHINGTON +   CLEAR     66  65  94 CALM      29.93S FOG

$$

INZ062-063-066-070>080-084-089>092-201000-
SOUTH CENTRAL AND SOUTHEAST INDIANA

CITY           SKY/WX    TMP DP  RH WIND       PRES   REMARKS
BEDFORD +      FOG       66  64  94 CALM      29.95R VSB 3/4
BLOOMINGTON    FOG       66  64  93 CALM      29.95R VSB 1/4
MADISON *+     CLOUDY    64  63  94 CALM      29.99S VSB 1/4
NORTH VERNON + CLEAR     63  63 100 CALM      29.97S FOG
SEYMOUR +      FOG       64  64 100 CALM      29.95F VSB 1/4

$$





USA.gov is the U.S. government's official web portal to all federal, state and local government web resources and services.